Tacoma, WA

10:23 PM PDT on April 21, 2018 (GMT -0700)
McChord Air Force Base

Weather History for KTCM - October, 2011

Change the Weather History Date:

Wednesday, October 5, 2011

  Actual Average Record
Temperature  
Mean Temperature 52 °F -  
Max Temperature 56 °F 62 °F 82 °F (1980)
Min Temperature 48 °F 43 °F 30 °F (2012)
Degree Days  
Heating Degree Days 12    
Growing Degree Days 2 (Base 50)    
Moisture  
Dew Point 48 °F    
Average Humidity 86    
Maximum Humidity 100    
Minimum Humidity 67    
Precipitation  
Precipitation 0.24 in - - ()
Sea Level Pressure  
Sea Level Pressure 29.57 in    
Wind  
Wind Speed 4 mph (SSW)    
Max Wind Speed 10 mph    
Max Gust Speed -    
Visibility 9 miles    
Events Rain    
Averages and records for this station are not official NWS values.
T = Trace of Precipitation, MM = Missing Value Source: NWS Daily Summary

Daily Weather History Graph

Daily Weather History Graph

Search for Another Location

Airport or City:

Astronomy

Oct. 05, 2011 Rise Set
Actual Time 7:14 AM PDT 6:41 PM PDT
Civil Twilight 6:43 AM PDT 7:12 PM PDT
Nautical Twilight 6:08 AM PDT 7:47 PM PDT
Astronomical Twilight 5:32 AM PDT 8:23 PM PDT
Moon 3:45 PM PDT (10/5) 12:42 AM PDT (10/5)
Length of Visible Light 12h 28m
Length of Day
11h 27m
Waxing Gibbous, 67% of the Moon is Illuminated
Oct 5
Waxing Gibbous
Oct 11
Full
Oct 19
Last Quarter
Oct 26
New
Nov 2
First Quarter

Hourly Weather History & Observations

Time (PDT) Temp. Dew Point Humidity Pressure Visibility Wind Dir Wind Speed Gust Speed Precip Events Conditions
12:22 AM 51.8 °F 50.0 °F 94% 29.44 in 10.0 mi NE 4.6 mph - N/A Rain Light Rain
12:32 AM 51.8 °F 50.0 °F 94% 29.43 in 10.0 mi NNE 4.6 mph - N/A   Overcast
12:58 AM 50.9 °F 49.3 °F 94% 29.47 in 10.0 mi East 3.5 mph - 0.00 in   Overcast
1:58 AM 50.7 °F 49.3 °F 95% 29.47 in 10.0 mi ESE 1.2 mph - N/A   Overcast
1:59 AM 50.0 °F 48.2 °F 94% 29.43 in 10.0 mi North - - N/A Rain Light Rain
2:32 AM 51.8 °F 48.2 °F 88% 29.43 in 10.0 mi North - - N/A   Overcast
2:46 AM 51.8 °F 50.0 °F 94% 29.45 in 10.0 mi SW 8.1 mph - N/A Rain Light Rain
2:56 AM 51.8 °F 50.0 °F 94% 29.45 in 7.0 mi WSW 5.8 mph - N/A Rain Light Rain
2:59 AM 50.9 °F 49.6 °F 95% 29.49 in 7.0 mi WSW 5.8 mph - 0.01 in Rain Light Rain
3:04 AM 51.8 °F 50.0 °F 94% 29.45 in 8.0 mi WSW 4.6 mph - N/A Rain Light Rain
3:14 AM 51.8 °F 50.0 °F 94% 29.45 in 10.0 mi WNW 2.3 mph - N/A Rain Light Rain
3:18 AM 51.8 °F 50.0 °F 94% 29.44 in 10.0 mi West 3.5 mph - N/A   Overcast
3:23 AM 51.8 °F 50.0 °F 94% 29.44 in 10.0 mi WNW 3.5 mph - N/A   Overcast
3:27 AM 51.8 °F 50.0 °F 94% 29.44 in 10.0 mi West 2.3 mph - N/A Rain Light Rain
3:37 AM 51.8 °F 50.0 °F 94% 29.45 in 10.0 mi Calm Calm - N/A   Overcast
3:42 AM 50.0 °F 50.0 °F 100% 29.45 in 10.0 mi NNE 1.2 mph - N/A   Light Drizzle
3:58 AM 50.9 °F 49.8 °F 96% 29.49 in 10.0 mi NE 2.3 mph - 0.01 in   Light Drizzle
3:59 AM 51.8 °F 50.0 °F 94% 29.45 in 10.0 mi Variable 1.2 mph - N/A   Overcast
4:58 AM 50.9 °F 49.5 °F 95% 29.49 in 10.0 mi SW 6.9 mph - 0.00 in   Overcast
5:59 AM 50.7 °F 48.4 °F 92% 29.47 in 10.0 mi SSE 5.8 mph - N/A   Mostly Cloudy
6:58 AM 48.6 °F 47.3 °F 95% 29.48 in 10.0 mi SSE 4.6 mph - N/A   Scattered Clouds
7:58 AM 49.6 °F 46.6 °F 89% 29.50 in 10.0 mi SSE 2.3 mph - N/A   Overcast
8:00 AM 50.0 °F 46.4 °F 87% 29.49 in 10.0 mi SSE 1.2 mph - N/A Rain Light Rain
8:20 AM 50.0 °F 48.2 °F 94% 29.50 in 10.0 mi ESE 2.3 mph - N/A   Mostly Cloudy
8:37 AM 50.0 °F 46.4 °F 87% 29.50 in 10.0 mi SSE 3.5 mph - N/A Rain Light Rain
8:58 AM 50.5 °F 47.5 °F 89% 29.55 in 10.0 mi South 2.3 mph - 0.00 in Rain Light Rain
8:59 AM 50.0 °F 46.4 °F 87% 29.51 in 10.0 mi South 3.5 mph - N/A   Clear
9:16 AM 51.8 °F 46.4 °F 82% 29.51 in 10.0 mi SW 5.8 mph - N/A Rain Light Rain
9:49 AM 51.8 °F 48.2 °F 88% 29.52 in 10.0 mi South 3.5 mph - N/A   Partly Cloudy
9:58 AM 52.2 °F 47.7 °F 85% 29.52 in 10.0 mi South 4.6 mph - 0.00 in   Partly Cloudy
10:58 AM 54.3 °F 47.5 °F 78% 29.54 in 10.0 mi South 5.8 mph - N/A   Overcast
11:08 AM 53.6 °F 46.4 °F 77% 29.53 in 10.0 mi SSW 6.9 mph - N/A   Overcast
11:13 AM 53.6 °F 46.4 °F 77% 29.53 in 10.0 mi SSW 10.4 mph - N/A   Overcast
11:58 AM 55.0 °F 46.0 °F 72% 29.55 in 10.0 mi South 9.2 mph - N/A   Mostly Cloudy
12:08 PM 55.4 °F 46.4 °F 72% 29.55 in 10.0 mi SW 10.4 mph - N/A   Mostly Cloudy
12:18 PM 55.4 °F 46.4 °F 72% 29.55 in 10.0 mi SSW 10.4 mph - N/A   Overcast
12:23 PM 55.4 °F 46.4 °F 72% 29.55 in 10.0 mi SW 9.2 mph - N/A   Overcast
12:28 PM 55.4 °F 46.4 °F 72% 29.55 in 10.0 mi SSW 9.2 mph - N/A   Overcast
12:33 PM 55.4 °F 46.4 °F 72% 29.55 in 10.0 mi South 9.2 mph - N/A   Overcast
12:58 PM 55.0 °F 45.9 °F 71% 29.57 in 10.0 mi SSW 8.1 mph - N/A   Overcast
1:58 PM 54.9 °F 45.9 °F 72% 29.57 in 10.0 mi SSW 4.6 mph - N/A   Overcast
2:25 PM 55.4 °F 46.4 °F 72% 29.57 in 10.0 mi South 6.9 mph - N/A Rain Light Rain
2:41 PM 55.4 °F 46.4 °F 72% 29.57 in 10.0 mi SSW 4.6 mph - N/A   Scattered Clouds
2:58 PM 55.8 °F 46.0 °F 70% 29.59 in 10.0 mi South 5.8 mph - 0.00 in   Scattered Clouds
3:18 PM 55.4 °F 46.4 °F 72% 29.58 in 10.0 mi SSE 1.2 mph - N/A   Mostly Cloudy
3:28 PM 55.4 °F 46.4 °F 72% 29.58 in 10.0 mi South 3.5 mph - N/A   Mostly Cloudy
3:33 PM 55.4 °F 46.4 °F 72% 29.59 in 10.0 mi South 4.6 mph - N/A   Mostly Cloudy
3:48 PM 57.2 °F 46.4 °F 67% 29.59 in 10.0 mi South 4.6 mph - N/A   Overcast
3:58 PM 56.1 °F 45.3 °F 67% 29.60 in 10.0 mi South 3.5 mph - N/A   Overcast
4:23 PM 55.4 °F 44.6 °F 67% 29.60 in 10.0 mi West 6.9 mph - N/A   Overcast
4:24 PM 55.4 °F 44.6 °F 67% 29.60 in 10.0 mi West 8.1 mph - N/A Rain Light Rain
4:29 PM 55.4 °F 46.4 °F 72% 29.60 in 6.0 mi West 6.9 mph - N/A Rain Light Rain
4:33 PM 53.6 °F 48.2 °F 82% 29.61 in 3.0 mi WNW 4.6 mph - N/A Rain Rain
4:38 PM 53.6 °F 48.2 °F 82% 29.61 in 2.5 mi WNW 2.3 mph - N/A Rain Rain
4:53 PM 51.8 °F 48.2 °F 88% 29.62 in 3.0 mi North - - N/A Rain Light Rain
4:58 PM 52.5 °F 48.4 °F 86% 29.63 in 4.0 mi NW 1.2 mph - 0.07 in Rain Light Rain
5:03 PM 51.8 °F 48.2 °F 88% 29.62 in 1.0 mi ENE 2.3 mph - N/A Rain Heavy Rain
5:08 PM 51.8 °F 48.2 °F 88% 29.62 in 1.5 mi ENE 3.5 mph - N/A Rain Light Rain
5:13 PM 51.8 °F 48.2 °F 88% 29.62 in 6.0 mi ENE 5.8 mph - N/A Rain Light Rain
5:23 PM 51.8 °F 48.2 °F 88% 29.63 in 9.0 mi SW 5.8 mph - N/A Rain Light Rain
5:28 PM 51.8 °F 48.2 °F 88% 29.64 in 9.0 mi SSW 4.6 mph - N/A Rain Light Rain
5:37 PM 51.8 °F 46.4 °F 82% 29.64 in 10.0 mi SW 5.8 mph - N/A   Overcast
5:58 PM 50.4 °F 46.6 °F 87% 29.65 in 10.0 mi SSW 4.6 mph - 0.08 in   Overcast
6:16 PM 50.0 °F 48.2 °F 94% 29.65 in 10.0 mi SSW 3.5 mph - N/A Rain Light Rain
6:24 PM 50.0 °F 48.2 °F 94% 29.65 in 10.0 mi SSW 3.5 mph - N/A   Mostly Cloudy
6:44 PM 50.0 °F 48.2 °F 94% 29.66 in 10.0 mi Calm Calm - N/A Rain Light Rain
6:58 PM 49.6 °F 48.0 °F 94% 29.68 in 10.0 mi Calm Calm - 0.00 in Rain Light Rain
7:02 PM 50.0 °F 48.2 °F 94% 29.67 in 10.0 mi SE 1.2 mph - N/A   Overcast
7:12 PM 50.0 °F 48.2 °F 94% 29.67 in 10.0 mi SSE 4.6 mph - N/A Rain Light Rain
7:58 PM 49.3 °F 48.0 °F 95% 29.71 in 10.0 mi SSE 4.6 mph - 0.01 in Rain Light Rain
8:58 PM 48.9 °F 47.8 °F 96% 29.73 in 10.0 mi SE 3.5 mph - 0.01 in Rain Light Rain
9:50 PM 48.2 °F 48.2 °F 100% 29.73 in 10.0 mi South 4.6 mph - N/A   Scattered Clouds
9:52 PM 48.2 °F 48.2 °F 100% 29.73 in 10.0 mi South 5.8 mph - N/A Rain Light Rain
9:58 PM 48.6 °F 47.5 °F 96% 29.78 in 10.0 mi South 4.6 mph - 0.01 in Rain Light Rain
10:58 PM 48.6 °F 47.1 °F 95% 29.80 in 10.0 mi SSE 2.3 mph - 0.01 in Rain Light Rain
11:42 PM 48.2 °F 46.4 °F 93% 29.78 in 7.0 mi South 3.5 mph - N/A Rain Light Rain
11:55 PM 48.6 °F 47.3 °F 95% 29.78 in 10.0 mi South 3.5 mph - 0.03 in Rain Light Rain